Weather History for Brenham, TX

Change the Weather History Date:

Tuesday, December 17, 2013

  Actual Average (KCLL) Record (KCLL)
Temperature  
Mean Temperature 53 °F 52 °F  
Max Temperature 71 °F 62 °F 81 °F (1924)
Min Temperature 35 °F 42 °F 20 °F (1932)
Degree Days  
Heating Degree Days 12 14  
Month to date heating degree days 210  
Since 1 July heating degree days 435  
Cooling Degree Days 0 0  
Month to date cooling degree days 13  
Year to date cooling degree days 3086  
Growing Degree Days 3 (Base 50)    
Moisture  
Dew Point 38 °F    
Average Humidity 60    
Maximum Humidity 91    
Minimum Humidity 26    
Precipitation  
Precipitation 0.00 in 0.10 in 1.11 in (1910)
Month to date precipitation 1.77  
Year to date precipitation 38.60  
Sea Level Pressure  
Sea Level Pressure 30.29 in    
Wind  
Wind Speed 1 mph (WSW)    
Max Wind Speed 9 mph    
Max Gust Speed -    
Visibility 10 miles    
Events      
T = Trace of Precipitation, MM = Missing Value Source: NWS Daily Summary

Daily Weather History Graph

Daily Weather History Graph

Search for Another Location

Airport:

Trip Planner

Search our weather history database for the weather conditions in past years. The results will help you decide how hot, cold, wet, or windy it might be!

Date:

Astronomy

Dec. 17, 2013 Rise Set
Actual Time 7:15 AM CST 5:27 PM CST
Civil Twilight 6:49 AM CST 5:54 PM CST
Nautical Twilight 6:19 AM CST 6:24 PM CST
Astronomical Twilight 5:49 AM CST 6:53 PM CST
Moon 6:04 PM CST (12/17) 7:16 AM CST (12/17)
Length of Visible Light 11h 05m
Length of Day
10h 12m
Full, 100% of the Moon is Illuminated
Dec 17
Full
Dec 25
Last Quarter
Jan 1
New
Jan 7
First Quarter
Jan 15
Full

Hourly Weather History & Observations

Time (CST) Temp. Dew Point Humidity Pressure Visibility Wind Dir Wind Speed Gust Speed Precip Events Conditions
12:15 AM 47.3 °F 34.7 °F 62% 30.28 in 10.0 mi Calm Calm - N/A   Clear
12:35 AM 47.3 °F 34.2 °F 60% 30.27 in 10.0 mi SSW 3.5 mph - N/A   Clear
12:55 AM 47.1 °F 34.2 °F 61% 30.27 in 10.0 mi Calm Calm - N/A   Clear
1:15 AM 46.4 °F 34.9 °F 64% 30.27 in 10.0 mi Calm Calm - N/A   Clear
1:35 AM 46.8 °F 35.1 °F 64% 30.27 in 10.0 mi Calm Calm - N/A   Clear
1:55 AM 45.7 °F 34.7 °F 65% 30.27 in 10.0 mi Calm Calm - N/A   Clear
2:15 AM 45.5 °F 35.2 °F 67% 30.27 in 10.0 mi Calm Calm - N/A   Clear
2:35 AM 43.9 °F 34.7 °F 70% 30.27 in 10.0 mi Calm Calm - N/A   Clear
2:55 AM 43.2 °F 34.9 °F 73% 30.27 in 10.0 mi Calm Calm - N/A   Clear
3:15 AM 45.0 °F 36.5 °F 72% 30.28 in 10.0 mi Calm Calm - N/A   Clear
3:35 AM 43.5 °F 35.8 °F 74% 30.28 in 10.0 mi Calm Calm - N/A   Clear
3:55 AM 44.1 °F 37.0 °F 76% 30.28 in 10.0 mi Calm Calm - N/A   Clear
4:15 AM 43.7 °F 36.3 °F 75% 30.29 in 10.0 mi Calm Calm - N/A   Clear
4:35 AM 41.7 °F 35.6 °F 79% 30.29 in 10.0 mi Calm Calm - N/A   Clear
4:55 AM 39.6 °F 34.9 °F 83% 30.29 in 10.0 mi Calm Calm - N/A   Clear
5:15 AM 37.8 °F 34.3 °F 87% 30.29 in 10.0 mi Calm Calm - N/A   Clear
5:35 AM 37.8 °F 34.7 °F 89% 30.29 in 10.0 mi Calm Calm - N/A   Clear
5:55 AM 39.6 °F 36.5 °F 89% 30.30 in 10.0 mi Calm Calm - N/A   Clear
6:15 AM 38.5 °F 35.2 °F 88% 30.30 in 10.0 mi Calm Calm - N/A   Clear
6:35 AM 37.6 °F 34.9 °F 90% 30.31 in 7.0 mi Calm Calm - N/A   Clear
6:55 AM 37.9 °F 35.4 °F 91% 30.32 in 7.0 mi Calm Calm - N/A   Clear
7:15 AM 37.2 °F 34.5 °F 90% 30.32 in 7.0 mi Calm Calm - N/A   Clear
7:35 AM 35.1 °F 32.4 °F 90% 30.32 in 10.0 mi Calm Calm - N/A   Clear
7:55 AM 35.8 °F 33.1 °F 90% 30.33 in 10.0 mi Calm Calm - N/A   Clear
8:15 AM 37.9 °F 35.1 °F 89% 30.33 in 10.0 mi Calm Calm - N/A   Clear
8:35 AM 41.5 °F 37.6 °F 86% 30.33 in 10.0 mi Calm Calm - N/A   Clear
8:55 AM 45.5 °F 40.3 °F 82% 30.34 in 10.0 mi Calm Calm - N/A   Clear
9:15 AM 47.8 °F 42.4 °F 82% 30.35 in 10.0 mi Calm Calm - N/A   Clear
9:35 AM 50.9 °F 42.8 °F 74% 30.35 in 10.0 mi Calm Calm - N/A   Clear
9:55 AM 53.8 °F 44.6 °F 71% 30.35 in 10.0 mi SW 3.5 mph - N/A   Clear
10:15 AM 58.3 °F 46.2 °F 64% 30.35 in 10.0 mi SW 8.1 mph - N/A   Clear
10:35 AM 61.5 °F 42.3 °F 49% 30.35 in 10.0 mi West 6.9 mph - N/A   Clear
10:55 AM 62.8 °F 43.0 °F 48% 30.34 in 10.0 mi WSW 9.2 mph - N/A   Clear
11:15 AM 64.8 °F 43.5 °F 46% 30.33 in 10.0 mi WSW 5.8 mph - N/A   Clear
11:35 AM 65.5 °F 43.5 °F 45% 30.33 in 10.0 mi West 4.6 mph - N/A   Clear
11:55 AM 66.7 °F 42.3 °F 41% 30.32 in 10.0 mi WSW 6.9 mph - N/A   Clear
12:15 PM 67.1 °F 42.1 °F 40% 30.30 in 10.0 mi WSW 4.6 mph - N/A   Clear
12:35 PM 68.9 °F 40.3 °F 35% 30.29 in 10.0 mi West 8.1 mph - N/A   Clear
12:55 PM 69.4 °F 39.4 °F 33% 30.28 in 10.0 mi SW 3.5 mph - N/A   Clear
1:15 PM 70.2 °F 37.9 °F 31% 30.28 in 10.0 mi West 6.9 mph - N/A   Clear
1:35 PM 70.7 °F 36.9 °F 29% 30.27 in 10.0 mi West 5.8 mph - N/A   Clear
1:55 PM 70.7 °F 37.2 °F 29% 30.26 in 10.0 mi Calm Calm - N/A   Clear
2:15 PM 71.2 °F 34.7 °F 26% 30.25 in 10.0 mi WSW 3.5 mph - N/A   Clear
2:35 PM 71.2 °F 34.5 °F 26% 30.25 in 10.0 mi Calm Calm - N/A   Clear
2:55 PM 71.6 °F 34.5 °F 26% 30.25 in 10.0 mi Calm Calm - N/A   Clear
3:15 PM 71.6 °F 34.5 °F 26% 30.25 in 10.0 mi Calm Calm - N/A   Clear
3:35 PM 71.6 °F 34.7 °F 26% 30.25 in 10.0 mi Calm Calm - N/A   Clear
3:55 PM 71.6 °F 34.7 °F 26% 30.25 in 10.0 mi Calm Calm - N/A   Clear
4:15 PM 71.2 °F 34.5 °F 26% 30.25 in 10.0 mi Calm Calm - N/A   Clear
4:35 PM 70.9 °F 34.5 °F 26% 30.26 in 10.0 mi Calm Calm - N/A   Clear
4:55 PM 70.0 °F 35.8 °F 29% 30.26 in 10.0 mi Calm Calm - N/A   Clear
5:15 PM 69.3 °F 35.6 °F 29% 30.26 in 10.0 mi Calm Calm - N/A   Clear
5:35 PM 67.1 °F 36.9 °F 33% 30.27 in 10.0 mi Calm Calm - N/A   Clear
5:55 PM 63.9 °F 39.4 °F 41% 30.28 in 10.0 mi Calm Calm - N/A   Clear
6:15 PM 62.8 °F 38.3 °F 40% 30.28 in 10.0 mi Calm Calm - N/A   Clear
6:35 PM 62.8 °F 37.8 °F 40% 30.29 in 10.0 mi Calm Calm - N/A   Clear
6:55 PM 60.1 °F 38.3 °F 44% 30.29 in 10.0 mi Calm Calm - N/A   Clear
7:15 PM 58.1 °F 38.7 °F 48% 30.30 in 10.0 mi Calm Calm - N/A   Clear
7:35 PM 57.0 °F 39.7 °F 52% 30.30 in 10.0 mi Calm Calm - N/A   Clear
7:55 PM 54.1 °F 40.1 °F 59% 30.30 in 10.0 mi Calm Calm - N/A   Clear
8:15 PM 52.7 °F 39.9 °F 62% 30.30 in 10.0 mi Calm Calm - N/A   Clear
8:35 PM 50.9 °F 41.0 °F 69% 30.31 in 10.0 mi Calm Calm - N/A   Clear
8:55 PM 51.4 °F 40.5 °F 66% 30.31 in 10.0 mi Calm Calm - N/A   Clear
9:15 PM 49.1 °F 40.8 °F 73% 30.31 in 10.0 mi Calm Calm - N/A   Clear
9:35 PM 48.9 °F 41.4 °F 75% 30.31 in 10.0 mi Calm Calm - N/A   Clear
9:55 PM 48.2 °F 41.0 °F 76% 30.31 in 10.0 mi Calm Calm - N/A   Clear
10:15 PM 46.9 °F 40.6 °F 79% 30.31 in 10.0 mi Calm Calm - N/A   Clear
10:35 PM 46.4 °F 40.5 °F 80% 30.31 in 10.0 mi Calm Calm - N/A   Clear
10:55 PM 46.0 °F 40.1 °F 80% 30.31 in 10.0 mi Calm Calm - N/A   Clear
11:15 PM 45.3 °F 40.5 °F 83% 30.31 in 10.0 mi Calm Calm - N/A   Clear
11:35 PM 45.0 °F 39.9 °F 82% 30.30 in 10.0 mi Calm Calm - N/A   Clear
11:55 PM 44.6 °F 39.7 °F 83% 30.30 in 10.0 mi Calm Calm - N/A   Clear